When you browse on this site, cookies collect data to enhance your experience and personalize the content and advertising you see.
Visit our Privacy Policy to learn more. By continuing to use the site, you agree to this use of cookies and data.
  • In Hungary
  • List of Countries
  • For 7 days
  • Water Temperature
  • Satellite Maps
  • Weather Map
  • News
  • Weather Widgets
  • user-avatar
    Login

    Hourly Weather Genk

    Today, 20 January, Sunday

    Time Temperature Precipitation Wind Pressure Humidity
    00:00 -3°C° 0 mm 2 mps 754 mmHg 69%
    01:00 -3°C° 0 mm 2 mps 754 mmHg 68%
    02:00 -3°C° 0 mm 2 mps 754 mmHg 68%
    03:00 -3°C° 0 mm 2 mps 754 mmHg 67%
    04:00 -3°C° 0 mm 2 mps 754 mmHg 67%
    05:00 -3°C° 0 mm 2 mps 754 mmHg 66%
    06:00 -4°C° 0 mm 2 mps 754 mmHg 65%
    07:00 -3°C° 0 mm 2 mps 755 mmHg 63%
    08:00 -3°C° 0 mm 2 mps 755 mmHg 61%
    09:00 -4°C° 0 mm 3 mps 755 mmHg 58%
    10:00 -1°C° 0 mm 3 mps 756 mmHg 54%
    11:00 0°C° 0 mm 3 mps 756 mmHg 50%
    12:00 +1°C° 0 mm 3 mps 756 mmHg 46%
    13:00 +1°C° 0 mm 3 mps 756 mmHg 48%
    14:00 0°C° 0 mm 3 mps 756 mmHg 49%
    15:00 +1°C° 0 mm 2 mps 756 mmHg 51%
    16:00 -1°C° 0 mm 2 mps 757 mmHg 54%
    17:00 -2°C° 0 mm 2 mps 757 mmHg 56%
    18:00 -3°C° 0 mm 2 mps 758 mmHg 59%
    19:00 -3°C° 0 mm 2 mps 758 mmHg 59%
    20:00 -1°C° 0 mm 1 mps 759 mmHg 58%
    21:00 -1°C° 0 mm 1 mps 760 mmHg 58%
    22:00 -1°C° 0 mm 1 mps 760 mmHg 58%
    23:00 -1°C° 0 mm 1 mps 760 mmHg 57%

    Tomorrow, 21 January, Monday

    Time Temperature Precipitation Wind Pressure Humidity
    00:00 -1°C° 0 mm 1 mps 761 mmHg 57%
    01:00 -1°C° 0 mm 1 mps 761 mmHg 57%
    02:00 -2°C° 0 mm 0 mps 761 mmHg 57%
    03:00 -2°C° 0 mm 0 mps 761 mmHg 57%
    04:00 -2°C° 0 mm 0 mps 761 mmHg 57%
    05:00 -3°C° 0 mm 0 mps 761 mmHg 57%
    06:00 -3°C° 0 mm 0 mps 761 mmHg 58%
    07:00 -2°C° 0 mm 0 mps 761 mmHg 56%
    08:00 -2°C° 0 mm 0 mps 761 mmHg 54%
    09:00 -1°C° 0 mm 0 mps 762 mmHg 52%
    10:00 0°C° 0 mm 0 mps 761 mmHg 48%
    11:00 +2°C° 0 mm 1 mps 761 mmHg 45%
    12:00 +3°C° 0 mm 1 mps 760 mmHg 41%
    13:00 +2°C° 0 mm 1 mps 760 mmHg 43%
    14:00 +2°C° 0 mm 1 mps 760 mmHg 45%
    15:00 +2°C° 0 mm 1 mps 759 mmHg 47%
    16:00 +1°C° 0 mm 1 mps 759 mmHg 50%
    17:00 0°C° 0 mm 1 mps 759 mmHg 52%
    18:00 -1°C° 0 mm 1 mps 759 mmHg 54%
    19:00 -3°C° 0 mm 2 mps 758 mmHg 54%
    20:00 -3°C° 0 mm 2 mps 758 mmHg 54%
    21:00 -3°C° 0 mm 2 mps 757 mmHg 54%
    22:00 -4°C° 0 mm 3 mps 757 mmHg 53%
    23:00 -4°C° 0 mm 3 mps 756 mmHg 52%

    Day after tomorrow, 22 January, Tuesday

    Time Temperature Precipitation Wind Pressure Humidity
    00:00 -4°C° 0 mm 3 mps 755 mmHg 51%
    01:00 -4°C° 0 mm 4 mps 754 mmHg 51%
    02:00 -3°C° 0 mm 4 mps 753 mmHg 50%
    03:00 -4°C° 0 mm 5 mps 752 mmHg 49%
    04:00 -4°C° 0 mm 5 mps 751 mmHg 50%
    05:00 -4°C° 0 mm 6 mps 750 mmHg 50%
    06:00 -3°C° 0 mm 6 mps 749 mmHg 50%
    07:00 -3°C° 0 mm 6 mps 748 mmHg 47%
    08:00 -2°C° 0 mm 6 mps 747 mmHg 45%
    09:00 -2°C° 0 mm 7 mps 746 mmHg 42%
    10:00 -2°C° 0.2 mm 6 mps 746 mmHg 49%
    11:00 -2°C° 0.2 mm 6 mps 745 mmHg 56%
    12:00 -2°C° 0.2 mm 6 mps 745 mmHg 63%
    13:00 -2°C° 0.2 mm 6 mps 744 mmHg 68%
    14:00 -1°C° 0.2 mm 5 mps 744 mmHg 73%
    15:00 -1°C° 0.2 mm 5 mps 743 mmHg 77%
    16:00 -2°C° 0.3 mm 4 mps 743 mmHg 81%
    17:00 -2°C° 0.3 mm 4 mps 743 mmHg 86%
    18:00 -2°C° 0.3 mm 4 mps 743 mmHg 90%
    19:00 -1°C° 0.3 mm 3 mps 743 mmHg 91%
    20:00 -1°C° 0.3 mm 3 mps 743 mmHg 93%
    21:00 -1°C° 0.3 mm 2 mps 743 mmHg 94%
    22:00 -1°C° 0.2 mm 2 mps 743 mmHg 94%
    23:00 -1°C° 0.2 mm 2 mps 742 mmHg 94%

    23 January, Wednesday

    Time Temperature Precipitation Wind Pressure Humidity
    00:00 -1°C° 0.2 mm 2 mps 742 mmHg 94%
    01:00 -1°C° 0.1 mm 2 mps 742 mmHg 93%
    02:00 -1°C° 0.1 mm 2 mps 742 mmHg 93%
    03:00 -2°C° 0.1 mm 2 mps 742 mmHg 92%
    04:00 -2°C° 0 mm 2 mps 742 mmHg 92%
    05:00 -3°C° 0 mm 2 mps 743 mmHg 93%
    06:00 -3°C° 0 mm 2 mps 743 mmHg 93%
    07:00 -1°C° 0 mm 1 mps 743 mmHg 91%
    08:00 0°C° 0 mm 1 mps 743 mmHg 90%
    09:00 0°C° 0 mm 1 mps 744 mmHg 89%
    10:00 +1°C° 0 mm 1 mps 744 mmHg 87%
    11:00 +1°C° 0 mm 2 mps 744 mmHg 85%
    12:00 +2°C° 0 mm 2 mps 744 mmHg 83%
    13:00 +2°C° 0 mm 2 mps 745 mmHg 86%
    14:00 +1°C° 0 mm 2 mps 745 mmHg 88%
    15:00 +1°C° 0 mm 2 mps 745 mmHg 90%
    16:00 +1°C° 0 mm 2 mps 746 mmHg 92%
    17:00 -1°C° 0 mm 2 mps 746 mmHg 93%
    18:00 0°C° 0 mm 1 mps 747 mmHg 95%
    19:00 -2°C° 0.1 mm 2 mps 748 mmHg 95%
    20:00 -2°C° 0.1 mm 2 mps 748 mmHg 95%
    21:00 -1°C° 0.1 mm 2 mps 749 mmHg 95%
    22:00 -2°C° 0 mm 2 mps 749 mmHg 95%
    23:00 -2°C° 0 mm 2 mps 749 mmHg 94%

    24 January, Thursday

    Time Temperature Precipitation Wind Pressure Humidity
    00:00 -2°C° 0 mm 2 mps 749 mmHg 94%
    01:00 -2°C° 0 mm 2 mps 749 mmHg 93%
    02:00 -3°C° 0 mm 2 mps 749 mmHg 93%
    03:00 -3°C° 0 mm 2 mps 750 mmHg 93%
    04:00 -3°C° 0 mm 2 mps 750 mmHg 93%
    05:00 -3°C° 0 mm 2 mps 750 mmHg 93%
    06:00 -3°C° 0 mm 2 mps 750 mmHg 93%
    07:00 -2°C° 0 mm 2 mps 750 mmHg 91%
    08:00 -2°C° 0 mm 2 mps 751 mmHg 90%
    09:00 -2°C° 0 mm 2 mps 751 mmHg 88%
    10:00 -1°C° 0 mm 2 mps 751 mmHg 85%
    11:00 +1°C° 0 mm 2 mps 751 mmHg 82%
    12:00 +2°C° 0 mm 2 mps 751 mmHg 79%
    13:00 +1°C° 0 mm 2 mps 751 mmHg 81%
    14:00 +2°C° 0 mm 1 mps 751 mmHg 82%
    15:00 +2°C° 0 mm 1 mps 751 mmHg 84%
    16:00 +1°C° 0 mm 1 mps 751 mmHg 86%
    17:00 0°C° 0 mm 1 mps 752 mmHg 87%
    18:00 -1°C° 0 mm 1 mps 753 mmHg 89%
    19:00 -1°C° 0 mm 1 mps 753 mmHg 89%
    20:00 -1°C° 0 mm 1 mps 754 mmHg 89%
    21:00 -1°C° 0 mm 1 mps 754 mmHg 89%
    22:00 -1°C° 0 mm 1 mps 755 mmHg 90%
    23:00 -1°C° 0 mm 1 mps 755 mmHg 90%

    25 January, Friday

    Time Temperature Precipitation Wind Pressure Humidity
    00:00 -1°C° 0 mm 1 mps 755 mmHg 90%
    01:00 -1°C° 0 mm 1 mps 756 mmHg 91%
    02:00 -1°C° 0 mm 1 mps 756 mmHg 92%
    03:00 -2°C° 0 mm 1 mps 756 mmHg 92%
    04:00 -2°C° 0 mm 1 mps 757 mmHg 93%
    05:00 -2°C° 0 mm 1 mps 757 mmHg 93%
    06:00 -2°C° 0 mm 1 mps 758 mmHg 93%
    07:00 -1°C° 0 mm 1 mps 759 mmHg 92%
    08:00 -1°C° 0 mm 1 mps 759 mmHg 90%
    09:00 0°C° 0 mm 1 mps 760 mmHg 89%
    10:00 +1°C° 0 mm 1 mps 760 mmHg 86%
    11:00 +2°C° 0 mm 1 mps 760 mmHg 83%
    12:00 +2°C° 0 mm 2 mps 760 mmHg 80%
    13:00 +3°C° 0 mm 1 mps 760 mmHg 82%
    14:00 +2°C° 0 mm 1 mps 760 mmHg 85%
    15:00 +2°C° 0 mm 1 mps 761 mmHg 87%
    16:00 +1°C° 0 mm 1 mps 761 mmHg 89%
    17:00 +1°C° 0 mm 1 mps 761 mmHg 91%
    18:00 0°C° 0 mm 1 mps 762 mmHg 93%
    19:00 -2°C° 0 mm 2 mps 762 mmHg 92%
    20:00 -2°C° 0 mm 2 mps 762 mmHg 91%
    21:00 -2°C° 0 mm 2 mps 762 mmHg 91%
    22:00 -3°C° 0 mm 2 mps 762 mmHg 90%
    23:00 -3°C° 0 mm 2 mps 762 mmHg 90%
    Show more